TIME,DELAY(SENSOR),PRES,OXYGEN,RAWTEMP,T(OPTODE),TCPHASE,FLUOR,BETA(BETA700),BETA(BETA412),BETA(BETA440),CDOM,C(CSC),ED(ED412.40),ED(ED444.00),ED(ED489.70),ED(ED554.30),LU(LU411.80),LU(LU443.40),LU(LU489.60),LU(LU554.10),COMP,TILTX,TILTY,CHECK
1352777761,5807,872.4299926757812000,44.4986801147460940,662.2457275390625000,4.5540118217468260,54.3572998046875000,53,101,87,79,80,15189,2147756626,2147422875,2148009682,2147872146,2147639597,2147063259,2148258925,2147197037,476,4,13,65002
1352781357,5808,938.3499755859375000,48.2745590209960940,670.5654296875000000,4.2795181274414060,53.9196510314941400,53,99,85,79,82,15185,2147758363,2147420214,2148011675,2147872777,2147644187,2147061339,2148261686,2147199579,3574,4,13,20347
1352784957,5809,964.9699707031250000,48.9820709228515600,672.6602172851562000,4.2102789878845215,53.8473701477050800,53,98,86,79,81,15179,2147759597,2147419483,2148010660,2147874322,2147643053,2147053257,2148263433,2147194724,126,4,13,42327
1352788557,5807,1006.4299926757812000,49.1246185302734400,674.2844848632812000,4.1565570831298830,53.8434791564941400,53,98,86,78,83,15185,2147758080,2147422838,2148008475,2147872905,2147644662,2147057088,2148263067,2147200082,382,4,13,3366
1352792157,5810,1010.3900146484375000,48.7375488281250000,673.7667236328125000,4.1736907958984375,53.8894996643066400,53,98,87,81,81,15182,2147759670,2147422637,2148010651,2147874432,2147641782,2147056000,2148261924,2147194944,3286,4,13,32712
1352795757,5810,1015.6099853515625000,48.4466094970703100,672.6997070312500000,4.2089748382568360,53.9215393066406250,52,98,85,79,81,15182,2147757202,2147418724,2148010102,2147873773,2147643254,2147057718,2148261120,2147195355,726,4,13,39557
1352799357,5810,1018.3800048828125000,48.0394783020019500,672.1480712890625000,4.2272129058837890,53.9728202819824200,53,100,88,79,81,15186,2147756096,2147421833,2148011291,2147876278,2147644342,2147058642,2148262930,2147200649,414,4,13,10036
1352802957,5807,1015.5200195312500000,47.7517509460449200,672.2041015625000000,4.2253608703613280,54.0085487365722660,53,97,88,78,82,15184,2147756096,2147423350,2148011236,2147872484,2147643611,2147053659,2148266340,2147195876,358,4,13,28365
1352806557,5807,1005.2100219726562000,47.9488792419433600,673.0432739257812000,4.1976151466369630,53.9964714050293000,52,99,85,79,82,15182,2147758372,2147422720,2148011638,2147873042,2147641490,2147052708,2148267529,2147199332,3270,4,13,6184
1352810157,5810,1000.8099975585938000,48.4014091491699200,674.0687866210938000,4.1636939048767090,53.9406509399414060,53,100,86,78,80,15183,2147757997,2147417920,2148012288,2147868973,2147642770,2147054125,2148263131,2147196854,3278,4,13,8714
1352813757,5807,1004.5599975585938000,48.6610984802246100,675.4614868164062000,4.1176128387451170,53.9211692810058600,53,99,88,80,81,15182,2147759798,2147421659,2148007707,2147870656,2147642468,2147062966,2148262564,2147196013,3057,4,13,29653
1352817357,5806,1005.5399780273438000,49.3930511474609400,677.5875854492188000,4.0472202301025390,53.8462409973144500,53,100,85,79,80,15180,2147756973,2147421092,2148012662,2147871744,2147646226,2147056265,2148263744,2147194422,3096,4,13,29698
1352820957,5807,1004.5300292968750000,49.1825485229492200,676.5341186523438000,4.0821089744567870,53.8614692687988300,53,100,84,79,82,15181,2147758720,2147422710,2148010806,2147875328,2147645202,2147057709,2148263963,2147196690,3513,4,13,41593
1352824557,5808,1008.9099731445312000,49.7127609252929700,677.7233276367188000,4.0427279472351070,53.8075103759765600,53,100,87,77,81,15181,2147758866,2147419008,2148010816,2147873106,2147646180,2147056310,2148263506,2147194523,28,4,13,47202
1352828157,5808,1008.7000122070312000,49.0450515747070300,676.6035156250000000,4.0798110961914060,53.8860092163085940,52,98,91,79,81,15180,2147755776,2147420160,2148011776,2147870646,2147642441,2147055835,2148263853,2147195264,3555,4,13,54955
1352831757,5811,1007.3599853515625000,49.5878601074218750,676.9923706054688000,4.0669350624084470,53.8170700073242200,52,99,84,78,81,15177,2147755913,2147422528,2148009737,2147872868,2147645778,2147057536,2148260214,2147199890,70,5,13,13317
1352835357,5810,1019.3499755859375000,49.3071899414062500,676.1724243164062000,4.0940837860107420,53.8412399291992200,52,99,90,79,81,15173,2147757540,2147419867,2148010249,2147874834,2147644132,2147053833,2148267008,2147195282,3445,4,13,11434
1352838957,5810,1022.8499755859375000,48.5529518127441400,674.8890991210938000,4.1365571022033690,53.9304389953613300,53,120,88,78,80,15173,2147756278,2147419913,2148011072,2147876571,2147644315,2147060836,2148262409,2147198134,3533,4,13,9104
1352842557,5809,1031.9599609375000000,48.7131118774414060,674.6024780273438000,4.1460399627685550,53.9075698852539060,53,98,88,79,81,15172,2147759990,2147419474,2148012617,2147871689,2147642066,2147059712,2148266057,2147200841,3099,4,13,9594
1352846157,5810,1030.8800048828125000,48.2711601257324200,673.5814819335938000,4.1798129081726070,53.9557991027832000,52,100,86,78,81,15165,2147757174,2147418724,2148008960,2147871424,2147643785,2147052598,2148266203,2147201600,500,4,13,52818
1352849757,5810,1022.2199707031250000,47.5471916198730500,673.7551879882812000,4.1740670204162600,54.0597190856933600,54,101,87,78,81,15168,2147760356,2147418541,2148010697,2147873380,2147640640,2147058944,2148262098,2147196964,420,4,13,45853
1352853357,5807,1016.4799804687500000,47.7927818298339840,674.7822875976562000,4.1400909423828125,54.0400085449218750,52,99,87,80,81,15170,2147759350,2147423725,2148012333,2147871606,2147641444,2147059136,2148264530,2147199021,406,4,13,36208
1352856957,5809,1020.5000000000000000,48.3387489318847660,675.6649780273438000,4.1108798980712890,53.9748115539550800,54,96,87,80,82,15171,2147759552,2147422710,2148010496,2147876160,2147644196,2147058505,2148260489,2147197851,3465,4,13,61883
1352860557,5809,1014.5100097656250000,48.5426483154296900,675.8527221679688000,4.1046662330627440,53.9429893493652340,51,98,90,80,83,15168,2147758272,2147422107,2148012178,2147874761,2147641078,2147056557,2148261860,2147198089,390,4,13,34809
1352864157,5806,1012.9000244140625000,48.8415107727050800,677.4149780273438000,4.0529370307922360,53.9206085205078100,53,98,88,80,82,15161,2147757668,2147423689,2148011154,2147873554,2147645120,2147059456,2148259209,2147197348,44,5,13,44392
1352867757,5810,1021.0900268554688000,49.1050796508789060,676.3629760742188000,4.0877718925476070,53.8710517883300800,52,97,87,79,81,15165,2147759524,2147421440,2148010889,2147874285,2147642669,2147054162,2148266870,2147201737,3520,4,13,16933
1352871357,5812,1022.8400268554688000,48.4499702453613300,675.2659912109375000,4.1240839958190920,53.9531784057617200,52,101,88,79,82,15160,2147758080,2147423040,2148010916,2147875538,2147646436,2147059282,2148263314,2147200822,3484,4,13,39543
1352874957,5810,1017.1400146484375000,48.3661804199218750,675.4780273437500000,4.1170668601989750,53.9672584533691400,53,98,86,79,82,15159,2147757321,2147420626,2148008905,2147872411,2147644836,2147055104,2148262125,2147199186,3513,4,13,23903
1352878557,5810,1017.1799926757812000,48.5302696228027340,675.4033203125000000,4.1195411682128910,53.9392814636230500,52,100,87,79,82,15159,2147758509,2147421174,2148010468,2147874980,2147641828,2147058514,2148261101,2147194166,793,4,13,28216
1352882157,5810,1021.0399780273438000,48.2833213806152340,675.6312255859375000,4.1119961738586430,53.9795799255371100,52,101,86,79,82,15164,2147761782,2147420516,2148013714,2147874294,2147642185,2147055012,2148267510,2147195145,483,5,13,56130
1352885757,5811,1021.5100097656250000,48.4771804809570300,675.3134765625000000,4.1225109100341800,53.9454994201660160,52,100,88,78,81,15160,2147759049,2147421238,2148009938,2147877238,2147643373,2147057453,2148264118,2147198070,682,4,13,46986
1352889357,5806,1019.6400146484375000,48.3847007751464840,675.4572753906250000,4.1177539825439450,53.9616699218750000,52,98,86,77,81,15158,2147755986,2147421110,2148010203,2147871762,2147645238,2147050130,2148266358,2147200256,3481,4,13,64576
1352892957,5811,1023.4000244140625000,48.2062606811523440,674.6464233398438000,4.1445870399475100,53.9806404113769500,53,99,88,80,81,15157,2147758317,2147423698,2148013174,2147874806,2147645421,2147055058,2148265865,2147197348,94,5,13,34090
1352896557,5805,1021.9099731445312000,48.6674499511718750,675.7584838867188000,4.1077837944030760,53.9288902282714840,52,99,89,78,80,15152,2147757001,2147421668,2148008832,2147873609,2147647451,2147055314,2148259584,2147196214,3593,4,13,44099
1352900157,5806,1024.5899658203125000,48.2013587951660160,675.9384765625000000,4.1018238067626950,53.9911499023437500,53,100,85,79,80,15159,2147759094,2147421961,2148010386,2147873042,2147644160,2147058368,2148261888,2147201152,3247,4,13,63568
1352903757,5807,1027.7199707031250000,48.7865180969238300,676.2382812500000000,4.0918998718261720,53.9177589416503900,53,100,87,80,80,15157,2147754779,2147419309,2148008832,2147873892,2147644004,2147062363,2148262262,2147198418,187,5,13,60019
1352907357,5807,1021.1400146484375000,48.3836898803710940,676.4470825195312000,4.0849881172180180,53.9756011962890600,53,98,84,80,81,15154,2147757321,2147421037,2148010203,2147870509,2147642121,2147052297,2148264118,2147197878,172,4,13,59187
1352910957,5812,1026.0799560546875000,49.4435882568359400,677.3507080078125000,4.0550689697265625,53.8394317626953100,52,100,84,79,81,15154,2147756818,2147417069,2148008009,2147874413,2147647085,2147058806,2148260022,2147195638,120,4,13,32755
1352914557,5806,1015.9899902343750000,48.6089096069335940,677.1665039062500000,4.0611691474914550,53.9527397155761700,52,99,87,79,81,15155,2147759232,2147423661,2148007652,2147873654,2147644260,2147053961,2148261659,2147194825,124,4,13,54611
1352918157,5811,1025.8599853515625000,49.3051109313964840,676.5534057617188000,4.0814690589904785,53.8492202758789060,53,99,88,78,81,15151,2147756388,2147419894,2148008420,2147869961,2147646080,2147058843,2148259995,2147196260,3539,4,13,16919
1352921757,5804,1023.1400146484375000,48.3847389221191400,676.3734130859375000,4.0874309539794920,53.9772186279296900,53,99,89,79,81,15150,2147757604,2147424950,2148011236,2147872850,2147643693,2147058605,2148265188,2147196242,113,4,13,39142
1352922356,5805,1024.8599853515625000,48.1233100891113300,676.4451293945312000,4.0850558280944820,54.0137405395507800,52,97,87,79,82,15172,2147759085,2147421696,2148008457,2147872649,2147644662,2147052617,2148258925,2147200118,3114,4,13,11202
